User: anonymous   Login
Location: Unspecified
(43.4680°N, 87.1740°E)
Time: 03:55:54
(UTC+00:00)
Language:

Resurs 01 Rocket - Orbit

View from above orbital plane
View from above orbital plane
View from above satellite
View from above satellite

Ground track
Ground track

The orbit data is extracted from the following two-line orbital elements,

1 23343U 94074B   21164.92429713  .00000041  00000-0  13107-4 0  9991
2 23343  97.9460 219.6126 0008215  70.4706 101.5930 14.76884142431764
Epoch (UTC): 13 June 2021 22:10:59
Eccentricity: 0.0008215
inclination: 97.9460°
perigee height: 633 km
apogee height: 645 km
right ascension of ascending node: 219.6126°
argument of perigee: 70.4706°
revolutions per day: 14.76884142
mean anomaly at epoch: 101.5930°
orbit number at epoch: 43176

The dashed part of the orbit path shows where the satellite is in the earth's shadow,  

DLR